METEOR 2-20 DEB

Satellite information

Favourite Embed

Satellite Type and Status

DEBRISIN ORBIT

Key statistics

Satellite METEOR 2-20 DEB at a glance.

Uptime

12756

Days in orbit

Revolutions

≈ 14.0

Per day

Orbit

LEO

Low Earth Orbit

Inclination

82.5

Latest

Satellite identification and parameters

Extended collection of information and parameters for METEOR 2-20 DEB.

Object identification

Identified? True

Debris? True

Object name: METEOR 2-20 DEB

International designator: 1990-086D

Object number (NORAD): 44699

Object ID (CCSDS): 44699

Country: COMMONWEALTH OF INDEPENDENT STATES (CIS)

Current information (Y/N): Y

RCS size: SMALL

Orbital parameters

Period: 103.089 minutes

Inclination: 82.52 deg

SMA: 7282.855 km

Apoapsis: 916.462 km

Periapsis: 892.978 km

RAAN: 36.6658 deg

Eccentricy: 0.00161225

Argument of periapsis: 93.4422 deg

Mean anomaly: 266.8589 deg

Mean motion: 13.96851628 rev/day

Mean motion (dot): 0.00002695 rev/day2

B* drag term: 0.0019258816 1/REarth

Two-line elements (TLE)

Creation date: Aug. 30, 2025, 3:38 a.m.

Reference frame: TEME

Reference center: EARTH

Epoch: Aug. 29, 2025, 5:30 p.m. UTC

TLE line 0: 0 METEOR 2-20 DEB

TLE line 1: 1 44699U 90086D 25241.72964320 .00002695 00000-0 19259-2 0 9992

TLE line 2: 2 44699 82.5200 36.6658 0016123 93.4422 266.8589 13.96851628596881

Live tracking on map

Real-time ground track for satellite METEOR 2-20 DEB.

In-orbit conjunctions

A list of the most updated potential collisions computed for object METEOR 2-20 DEB.

Target Orbit TCA Probability of collision Miss distance Type
FENGYUN 1C DEB SSO 2025-07-21 19:35:40 0.0001110514 100.0 (m) DEBRIS
CZ-6A DEB LEO 2024-12-28 08:42:55 0.0002499281 567.0 (m) DEBRIS

Associated space launch

Second generation soviet meteorological satellite

METEOR 2-20 DEB was lifted into orbit during the mission ‘Tsiklon-3 | Meteor-2 20’, on board a Tsiklon-3 space rocket.

The launch took place on Sept. 28, 1990, 7:30 a.m. from 32/1.

For more information about the launch, click the button.

Launch to space Tsiklon-3 | Meteor-2 20
Tsiklon-3 | Meteor-2 20

Agency: N/A

Status: Launch Successful

Launch date: Sept. 28, 1990, 7:30 a.m. UTC

Rocket: Tsiklon-3

Launch pad: 32/1

Location: Plesetsk Cosmodrome, Russian Federation

...

Latest news about this satellite

There are no fresh news available about this satellite. Check back as we update our databases every day.


Newsletter sign-up

Weekly statistics, charts and insights to help you stay on top of the space industry.